CW8014 Weather Reports


time (UTC)temp
F
wind
direction
speed
knots
gust
knots
rain 1hr
in
rain 24hr
in
rain mn
in
humidity
%
barometer
mb
20260506154409 54 124 3.5 6.1 0.00 0.00 0.00 67 1009.3
20260506153409 55 87 1.7 6.1 0.00 0.00 0.00 69 1009.2
20260506152409 55 96 4.3 7.0 0.00 0.00 0.00 68 1009.2
20260506151409 55 146 3.5 7.8 0.00 0.00 0.00 67 1009.1
20260506150412 55 121 2.6 5.2 0.00 0.00 0.00 71 1009.1
20260506145409 55 143 3.5 7.8 0.00 0.00 0.00 70 1009.0
20260506144410 55 146 3.5 7.0 0.00 0.00 0.00 70 1009.1
20260506143410 55 116 3.5 6.1 0.00 0.00 0.00 68 1009.1
20260506142501 56 130 2.6 6.1 0.00 0.00 0.00 68 1009.1
20260506142400 56 134 2.6 4.3 0.00 0.00 0.00 68 1009.1
20260506141401 56 103 3.5 6.1 0.00 0.00 0.00 66 1009.1
20260506140401 56 118 3.5 7.0 0.00 0.00 0.00 67 1009.0
20260506135401 56 135 3.5 7.8 0.00 0.00 0.00 69 1009.0
20260506134401 56 160 3.5 7.0 0.00 0.00 0.00 69 1009.1
20260506132404 55 151 1.7 4.3 0.00 0.00 0.00 72 1009.1
20260506131404 54 140 3.5 7.8 0.00 0.00 0.00 72 1009.1
20260506130401 54 146 3.5 6.1 0.00 0.00 0.00 73 1009.0
20260506125401 54 111 3.5 7.8 0.00 0.00 0.00 70 1009.0
20260506124401 55 113 3.5 7.8 0.00 0.00 0.00 68 1009.0
20260506122401 55 111 2.6 6.1 0.00 0.00 0.00 65 1009.0
20260506121401 55 82 2.6 4.3 0.00 0.00 0.00 62 1008.8
20260506120401 55 103 3.5 7.0 0.00 0.00 0.00 60 1008.8
20260506115401 55 92 2.6 6.1 0.00 0.00 0.00 61 1008.7
20260506114402 55 10 3.5 8.7 0.00 0.00 0.00 59 1008.8
20260506113401 55 103 3.5 7.8 0.00 0.00 0.00 60 1008.8
20260506104405 54 47 3.5 10.4 0.00 0.00 0.00 63 1008.6
20260506103403 53 53 3.5 8.7 0.00 0.00 0.00 64 1008.6
20260506102402 53 54 5.2 12.2 0.00 0.00 0.00 64 1008.6
20260506101402 53 49 3.5 9.6 0.00 0.00 0.00 65 1008.6
20260506095405 53 49 3.5 9.6 0.00 0.00 0.00 65 1008.5
20260506094405 53 75 2.6 7.8 0.00 0.00 0.00 66 1008.5
20260506093402 52 43 2.6 10.4 0.00 0.00 0.00 66 1008.5
20260506092402 52 360 2.6 7.8 0.00 0.00 0.00 67 1008.5
20260506091402 52 114 1.7 7.8 0.00 0.00 0.00 67 1008.5
20260506090402 52 17 4.3 8.7 0.00 0.00 0.00 67 1008.5
20260506085402 52 360 1.7 5.2 0.00 0.00 0.00 68 1008.4
20260506084402 51 44 2.6 10.4 0.00 0.00 0.00 67 1008.3
20260506083403 51 52 2.6 6.1 0.00 0.00 0.00 71 1008.2
20260506082403 51 57 1.7 3.5 0.00 0.00 0.00 71 1008.2
20260506081403 51 71 1.7 6.1 0.00 0.00 0.00 72 1008.1
20260506080403 50 30 2.6 9.6 0.00 0.00 0.00 75 1008.1
20260506072403 50 15 3.5 7.8 0.00 0.00 0.00 82 1007.9
20260506071403 50 309 3.5 8.7 0.00 0.00 0.00 82 1007.9
20260506070403 50 360 2.6 6.1 0.00 0.00 0.00 83 1007.9
20260506061404 50 355 2.6 7.0 0.00 0.00 0.00 82 1007.8
20260506051404 49 360 2.6 6.1 0.00 0.00 0.00 83 1007.8
20260506044404 50 360 2.6 5.2 0.00 0.00 0.00 81 1007.8
20260506043404 50 36 2.6 5.2 0.00 0.00 0.00 80 1007.8
20260506042404 50 23 3.5 7.0 0.00 0.00 0.00 79 1007.7
20260506041404 50 336 2.6 6.1 0.00 0.00 0.00 79 1007.6
20260506040404 50 43 3.5 7.8 0.00 0.00 0.00 79 1007.7
20260506034405 50 43 2.6 7.0 0.00 0.00 0.00 82 1007.8
20260506033405 50 130 0.9 6.1 0.00 0.00 0.00 84 1007.8
20260506032405 50 360 2.6 8.7 0.00 0.00 0.00 84 1007.9
20260506030408 50 9 2.6 6.1 0.00 0.00 0.00 85 1007.9
20260506025405 50 20 2.6 6.1 0.00 0.00 0.00 86 1008.0
20260506024405 50 57 2.6 5.2 0.00 0.00 0.00 86 1008.0
20260506023405 50 22 2.6 6.1 0.00 0.00 0.00 86 1008.1
20260506022405 50 17 2.6 7.0 0.00 0.00 0.00 87 1008.1
20260506020408 50 29 2.6 5.2 0.00 0.00 0.00 88 1008.2
20260506015405 50 16 2.6 6.1 0.00 0.00 0.00 88 1008.3
20260506012405 50 19 2.6 5.2 0.00 0.00 0.00 89 1008.3
20260506011405 50 9 2.6 7.0 0.00 0.00 0.00 89 1008.4
20260506010405 50 29 2.6 7.0 0.00 0.00 0.00 89 1008.4
20260506004406 50 346 3.5 6.1 0.00 0.00 0.00 88 1008.6
20260506003406 50 355 3.5 7.0 0.00 0.00 0.00 87 1008.6
20260506002406 50 360 2.6 4.3 0.00 0.00 0.00 87 1008.7
20260506000409 50 355 3.5 7.0 0.00 0.00 0.00 86 1008.8
20260505235407 50 360 2.6 8.7 0.00 0.00 0.00 86 1009.0
20260505234406 50 17 3.5 7.8 0.00 0.00 0.00 85 1009.1
20260505233409 50 5 2.6 5.2 0.00 0.00 0.00 85 1009.1
20260505232406 50 5 5.2 8.7 0.00 0.00 0.00 85 1009.0
20260505231406 50 17 4.3 10.4 0.00 0.00 0.00 85 1009.1
20260505230407 50 344 2.6 7.0 0.00 0.00 0.00 85 1009.1
20260505224407 50 360 4.3 8.7 0.00 0.00 0.00 84 1009.2
20260505222406 50 5 3.5 9.6 0.00 0.00 0.00 84 1009.3
20260505220407 50 360 4.3 8.7 0.00 0.00 0.00 83 1009.4
20260505215407 50 346 3.5 9.6 0.00 0.00 0.00 83 1009.5
20260505214407 50 11 3.5 8.7 0.00 0.00 0.00 83 1009.7
20260505213407 50 5 2.6 7.0 0.00 0.00 0.00 83 1009.7
20260505212410 50 119 2.6 5.2 0.00 0.00 0.00 83 1009.7
20260505211407 50 5 4.3 9.6 0.00 0.00 0.00 83 1009.7
20260505210407 50 17 2.6 6.1 0.00 0.00 0.00 84 1009.8
20260505205407 50 360 3.5 8.7 0.00 0.00 0.00 83 1009.9
20260505204407 50 25 4.3 8.7 0.00 0.00 0.00 83 1009.9
20260505203407 50 9 4.3 9.6 0.00 0.00 0.00 83 1010.0
20260505202407 50 344 4.3 10.4 0.00 0.00 0.00 84 1010.0
20260505201410 50 346 4.3 7.8 0.00 0.00 0.00 84 1009.9
20260505195407 50 9 3.5 8.7 0.00 0.00 0.00 84 1009.9
20260505193408 50 355 3.5 9.6 0.00 0.00 0.00 84 1009.8
20260505192407 51 355 3.5 7.8 0.00 0.00 0.00 85 1009.8
20260505191408 51 11 4.3 8.7 0.00 0.00 0.00 84 1009.7
20260505190408 51 360 3.5 7.8 0.00 0.00 0.00 85 1009.6
20260505185408 51 342 3.5 7.0 0.00 0.00 0.00 84 1009.6
20260505183408 51 345 6.1 10.4 0.00 0.00 0.00 84 1009.5
20260505181408 51 5 5.2 10.4 0.00 0.00 0.00 84 1009.5
20260505175408 52 37 5.2 9.6 0.00 0.00 0.00 83 1009.7
20260505174411 52 328 5.2 11.3 0.00 0.00 0.00 83 1009.6
20260505173408 52 360 6.1 10.4 0.00 0.00 0.00 82 1009.7
20260505172408 52 9 6.1 11.3 0.00 0.00 0.00 82 1009.7
20260505171408 53 13 6.1 10.4 0.00 0.00 0.00 82 1009.8
20260505165409 54 346 7.0 11.3 0.00 0.00 0.00 80 1009.7
20260505164409 54 11 3.5 7.8 0.00 0.00 0.00 81 1009.7
20260505163412 54 97 2.6 7.8 0.00 0.00 0.00 81 1009.7
20260505162409 54 5 5.2 9.6 0.00 0.00 0.00 78 1009.7
20260505161409 55 333 5.2 9.6 0.00 0.00 0.00 78 1009.6
20260505160409 55 51 3.5 7.8 0.00 0.00 0.00 77 1009.7